Погода в Акъяре

Погода в Акъяре : погода сейчас, прогноз погоды и архив. Всё, что Вы хотите узнать о погоде в Акъяре!

Поиск расширенной информации на нашем сайте:

Другие новости

Новости СМИ2

Главная страница сайта

Новости сайта

03.07.2017

Напоминаем, что на нашем специализированном сайте Метеоцентр.Азия вы можете получить высокодетализированные автоматические прогнозы погоды по пунктам России, СНГ и мира в авиационном формате (включающие направление и скорость ветра, видимость, явления погоды, количество и форму облачности, нижнюю и верхнюю границу облачности).


Погода в Акъяре - сегодня

Время (UTC), дата Ветер
(°,м/с) 
Видим.   Явления Облачность Т
(°С)
Тd
(°С)
f(%) Тe
(°С)
Pmin
(гПа)
dP
(гПа)
Po
(мм)
O2
(г/м3)
Тmin Tmax R s Состояние
почвы
06 16.01.18 320 (СЗ) 4000 м  слаб. снег  9/9 600 м 
[Sc]
-20.3 -23.4 76 -23  1032.5  0.3  740  324  -20.6         
09 16.01.18 100 (В) 20000 м  слаб. снег  9/0 средняя 
[As trans]
-15.9 -20.4 68 -16  1031.1  -0.6  739  318           
12 16.01.18 140 (ЮВ) 10 км  {снег}  4/0 верхняя 
[Ci fib]
-17.9 -21.1 76 -18  1031.1  -0.4  739  320           
15 16.01.18 тихо ()   10 км    3/0 верхняя 
[Ci fib]
-21.5 -24.3 78 -22  1031.2  -0.5  739  325    -15.8  0.0     
18 16.01.18 тихо ()   20000 м    5/0 верхняя 
[Ci fib]
-22.7 -25.8 76 -23  1030.8  -0.6  738  326           
21 16.01.18 360 (С) 10 км    3/0 верхняя 
[Ci fib]
-23.9 -27.1 75 -24  1031.4  0.4  738  328           
00 17.01.18 350 (С) 10 км    8/4 600 м верхняя 
[Sc|Ci fib]
-25.4 -28.9 72 -26  1032  0.3  739  330           
03 17.01.18 340 (С) 10 км  слаб. снег  10/10 600 м 
[Sc]
-23.8 -26.9 76 -24  1031.5  -0.2  738  328  -25.9    0.0  13  равномерный
сухой снег
100% 
06 17.01.18 тихо ()   4000 м  слаб. снег{туман}  8/5 600 м верхняя 
[Sc|Ci fib]
-20.7 -23.6 78 -21  1031.9  739  324           
09 17.01.18 150 (ЮВ) 20000 м  {снег}  4/0 верхняя 
[Ci fib]
-17.1 -20.7 74 -17  1031.3  739  319           
12 17.01.18 180 (Ю) 20000 м  {снег}  8/0 верхняя 
[Ci fib]
-16.5 -20.1 74 -19  1031.3  -0.1  739  319           
15 17.01.18 250 (З) 20000 м    8/0 верхняя 
[Ci fib]
-17.8 -21.2 75 -18  1032.1  0.5  740  320    -16.3  0.0     
18 17.01.18 230 (ЮЗ) 10 км  слаб. ливневой снег  9/9 600 м кучево-дожд. 
[Cb cap]
-16.8 -19.9 77 -17  1032.2  0.3  740  319           
21 17.01.18 230 (ЮЗ) 10 км  слаб. ливневой снег  10/10 600 м кучево-дожд. 
[Cb cap]
-16 -18.9 78 -16  1032.4  0.4  740  318           
00 18.01.18 тихо ()   10 км  слаб. ливневой снег  10/10 600 м кучево-дожд. 
[Cb cap]
-15.4 -18.3 78 -15  1032.8  0.4  740  318           
03 18.01.18 130 (ЮВ) 10 км  слаб. ливневой снег  10/10 600 м кучево-дожд. 
[Cb cap]
-15.1 -17.8 80 -15  1032.6  -0.1  740  317  -18.1    0.0  14  равномерный
сухой снег
100% 
06 18.01.18 160 (Ю) 2000 м  слаб. ливневой снег  9/9 600 м кучево-дожд. 
[Cb cap]
-13.3 -17.1 73 -13  1032.8  0.5  741  315           
09 18.01.18 110 (В) 4000 м  слаб. ливневой снег  9/5 600 м кучево-дожд., средняя, верхняя 
[Cb cap|Ac trans|Cs]
-13.9 -17.6 74 -16  1032.6  -0.3  741  316           
12 18.01.18 110 (В) 2000 м  слаб. ливневой снег  9/9 600 м кучево-дожд. 
[Cb cap]
-14.4 -17.4 78 -17  1032.4  -0.3  740  316           
15 18.01.18 120 (ЮВ) 10 км  слаб. ливневой снег  10/10 600 м кучево-дожд. 
[Cb cap]
-15.7 -18.2 81 -18  1032.8  0.2  740  318    -13.1  0.2     
18 18.01.18 110 (В) 4000 м  слаб. ливневой снег  10/10 600 м кучево-дожд. 
[Cb cap]
-16.6 -19 82 -19  1032.7  -0.2  740  319           
21 18.01.18 110 (В) 2000 м  слаб. ливневой снег  10/10 600 м кучево-дожд. 
[Cb cap]
-16.9 -19.4 81 -17  1033.5  0.7  741  320           
00 19.01.18 070 (В) 2000 м  слаб. ливневой снег  10/10 600 м кучево-дожд. 
[Cb cap]
-17.1 -19.7 80 -20  1033.3  -0.3  741  320           
03 19.01.18 070 (В) 4000 м  слаб. ливневой снег  10/10 600 м кучево-дожд. 
[Cb cap]
-17.9 -20.5 80 -20  1033.3  -0.1  741  321  -17.9    0.2  16  равномерный
сухой снег
100% 
06 19.01.18 060 (СВ) 4000 м  слаб. снег{ливн. осадки}  9/3 600 м средняя 
[Sc|As trans]
-18.2 -20.9 79 -18  1034.6  1.1  741  322  -18.3         
Время (UTC), дата Ветер
(°,м/с) 
Видим.   Явления Облачность Т
(°С)
Тd
(°С)
f(%) Тe
(°С)
Pmin
(гПа)
dP
(гПа)
Po
(мм)
O2
(г/м3)
Тmin Tmax R s Состояние
почвы

Для получения пояснительной информации подведите курсор к названию столбца.

ПОГОДА в Акъяре - архив

Всё, что Вы хотите узнать о погоде в Акъяре - удобно и подробно!

Выберите нужную дату (начиная с 1 января 2015* года) и нажмите кнопку "Найти".
Будут отображены архивные сводки погоды по пункту Акъяр, начиная с указанной даты.


Отображать данные в формате CSV (для использования в таблицах Excel)


Внимание! Наш архив погоды предназначен исключительно для личного некоммерческого использования в познавательных целях. Если Вам необходимы официальные справки о состоянии погоды (для производственных, юридических, коммерческих и т.п. целей), обращайтесь в органы Росгидромета.

*Примечание: данная дата относится к архиву по метеостанциям СССР (Россия, СНГ, Балтия).
Архив по метеостанциям Зарубежной Европы и Азии (кроме Китая) хранится 10 дней, по другим регионам земного шара (Китай, Африка, Америка, Австралия, Океания) - 1 день.

Акъяр - район местоположения метеостанции


Название, широта, долгота, высота метеостанции:
Акъяр 51.9°ш. 58.2°д. 341 м над ур. моря [Российская Федерация]

Дополнительная информация

В oтличие oт бoльшинства пoгoдных сайтoв мы публикуем пoдрoбную метеoинфoрмацию в детальнoм прoфессиoнальнoм фoрмате.

Характеристики температуры и влажнoсти вoздуха измеряются на высoте 2 м в тени вдали oт зданий и деревьев.
Скoрoсть ветра измеряется на высoте 10 м (на урoвне рoста челoвека скoрoсть ветра ниже в 1.5-2 раза). Если метеoстанция нахoдится в гoрoде или в лесу, тo скoрoсть ветра занижена на 2-4 м/с пo сравнению с oткрытым местoм. Скoрoсть ветра над акватoриями крупных рек и oзёр, а также на вершинах хoлмoв на 2-5 м/с выше, чем в oбычных услoвиях.
Атмoсфернoе давление в разных тoчках местнoсти мoжет значительнo oтличаться oт давления на метеoстанции, в зависимoсти oт услoвий рельефа (при пoдъёме на 10 м давление пoнижается примернo на 1 мм рт.ст.).